Ketchikan, AK

10:43 PM AKDT on September 22, 2018 (GMT -0800)
Ketchikan International

Weather History for PAKT - October, 2017

Change the Weather History Date:

Saturday, October 14, 2017

  Actual Average Record
Temperature  
Mean Temperature 48 °F -  
Max Temperature 53 °F 52 °F 62 °F (1963)
Min Temperature 44 °F 40 °F 25 °F (1992)
Degree Days  
Heating Degree Days 16    
Moisture  
Dew Point 46 °F    
Average Humidity 96    
Maximum Humidity 100    
Minimum Humidity 87    
Precipitation  
Precipitation 0.60 in - - ()
Sea Level Pressure  
Sea Level Pressure 29.99 in    
Wind  
Wind Speed 9 mph (SE)    
Max Wind Speed 22 mph    
Max Gust Speed 31 mph    
Visibility 6 miles    
Events Rain    
Averages and records for this station are not official NWS values.
T = Trace of Precipitation, MM = Missing Value Source: NWS Daily Summary

Daily Weather History Graph

Daily Weather History Graph

Search for Another Location

Airport or City:

Astronomy

Oct. 14, 2017 Rise Set
Actual Time 7:15 AM AKDT 5:48 PM AKDT
Civil Twilight 6:38 AM AKDT 6:25 PM AKDT
Nautical Twilight 5:56 AM AKDT 7:07 PM AKDT
Astronomical Twilight 5:13 AM AKDT 7:50 PM AKDT
Moon 12:47 AM AKDT (10/14) 4:18 PM AKDT (10/14)
Length of Visible Light 11h 46m
Length of Day
10h 32m
Waning Crescent, 25% of the Moon is Illuminated
Oct 14
Waning Crescent
Oct 19
New
Oct 27
First Quarter
Nov 3
Full
Nov 10
Last Quarter

Hourly Weather History & Observations

Time (AKDT) Temp. Windchill Dew Point Humidity Pressure Visibility Wind Dir Wind Speed Gust Speed Precip Events Conditions
12:42 AM 44.1 °F 39.0 °F 42.1 °F 93% 30.06 in 2.5 mi SSE 9.2 mph - 0.04 in Rain Rain
12:53 AM 44.1 °F 38.1 °F 42.1 °F 93% 30.06 in 2.0 mi SSE 11.5 mph - 0.07 in Rain Rain
1:06 AM 44.1 °F 38.6 °F 43.0 °F 96% 30.05 in 4.0 mi SSE 10.4 mph - 0.01 in Rain Light Rain
1:53 AM 44.1 °F 39.0 °F 43.0 °F 96% 30.05 in 4.0 mi SSE 9.2 mph - 0.03 in Rain Light Rain
2:53 AM 45.0 °F 40.1 °F 43.0 °F 93% 30.04 in 5.0 mi SSE 9.2 mph - 0.02 in Rain Light Rain
3:09 AM 45.0 °F 40.6 °F 44.1 °F 97% 30.04 in 3.0 mi SSE 8.1 mph - 0.01 in Rain Light Rain
3:24 AM 45.0 °F 40.1 °F 44.1 °F 97% 30.04 in 2.5 mi SSE 9.2 mph - 0.02 in Rain Light Rain
3:53 AM 45.0 °F 41.2 °F 44.1 °F 97% 30.04 in 3.0 mi SSE 6.9 mph - 0.03 in Rain Light Rain
4:10 AM 45.0 °F 43.5 °F 44.1 °F 97% 30.04 in 7.0 mi South 3.5 mph - 0.00 in   Overcast
4:35 AM 45.0 °F 43.5 °F 44.1 °F 97% 30.05 in 4.0 mi SSE 3.5 mph - 0.02 in Rain Light Rain
4:48 AM 44.6 °F - 44.6 °F 100% 30.05 in 5.0 mi Calm Calm - 0.02 in Rain Light Rain
4:53 AM 45.0 °F - 44.1 °F 97% 30.05 in 5.0 mi Calm Calm - 0.02 in Rain Light Rain
5:00 AM 45.0 °F - 44.1 °F 97% 30.05 in 5.0 mi Calm Calm - 0.00 in Rain Light Rain
5:53 AM 45.0 °F - 44.1 °F 97% 30.06 in 10.0 mi Calm Calm - 0.00 in   Overcast
6:14 AM 45.0 °F - 44.1 °F 97% 30.07 in 10.0 mi Calm Calm - N/A   Overcast
6:53 AM 45.0 °F 43.5 °F 44.1 °F 97% 30.07 in 10.0 mi South 3.5 mph - N/A   Overcast
7:53 AM 45.0 °F 41.8 °F 45.0 °F 100% 30.08 in 10.0 mi SSE 5.8 mph - N/A   Overcast
8:26 AM 45.0 °F 43.5 °F 45.0 °F 100% 30.08 in 1.8 mi SSE 3.5 mph - N/A   Overcast
8:33 AM 45.0 °F 43.5 °F 45.0 °F 100% 30.08 in 4.0 mi SSE 3.5 mph - N/A   Overcast
8:53 AM 45.0 °F 41.8 °F 45.0 °F 100% 30.09 in 4.0 mi SE 5.8 mph - N/A   Overcast
9:53 AM 46.0 °F 43.1 °F 45.0 °F 96% 30.11 in 3.0 mi ESE 5.8 mph - N/A   Overcast
10:53 AM 46.0 °F 43.9 °F 45.0 °F 96% 30.10 in 10.0 mi SE 4.6 mph - N/A   Overcast
11:13 AM 46.4 °F 42.9 °F 46.4 °F 100% 30.09 in 10.0 mi East 6.9 mph - N/A   Overcast
11:53 AM 46.4 °F 43.5 °F 46.4 °F 100% 30.10 in 10.0 mi East 5.8 mph - N/A   Overcast
12:53 PM 48.2 °F - 44.6 °F 87% 30.09 in 10.0 mi ESE 8.1 mph - N/A   Overcast
1:53 PM 48.2 °F - 46.4 °F 93% 30.08 in 10.0 mi SE 9.2 mph - N/A   Overcast
2:49 PM 48.2 °F - 46.4 °F 93% 30.05 in 10.0 mi SSE 5.8 mph - N/A   Overcast
2:53 PM 48.2 °F - 46.4 °F 93% 30.06 in 10.0 mi SE 4.6 mph - N/A   Overcast
3:53 PM 46.4 °F 42.4 °F 46.4 °F 100% 30.01 in 4.0 mi SSE 8.1 mph - N/A Rain Light Rain
4:53 PM 48.2 °F - 46.4 °F 93% 29.97 in 10.0 mi SSE 8.1 mph - N/A Rain Light Rain
5:53 PM 48.2 °F - 48.2 °F 100% 29.91 in 10.0 mi SSE 12.7 mph 23.0 mph N/A   Overcast
6:53 PM 50.0 °F - 48.9 °F 96% 29.88 in 3.0 mi SSE 13.8 mph 25.3 mph 0.05 in Rain Light Rain
7:53 PM 50.0 °F - 48.9 °F 96% 29.85 in 3.0 mi SE 18.4 mph - 0.18 in Rain Light Rain
8:53 PM 53.1 °F - 51.1 °F 93% 29.81 in 3.0 mi SE 21.9 mph 31.1 mph 0.06 in Rain Light Rain
9:53 PM 53.1 °F - 52.0 °F 96% 29.78 in 3.0 mi SE 20.7 mph 27.6 mph 0.02 in Rain Light Rain
9:59 PM 53.1 °F - 52.0 °F 96% 29.78 in 3.0 mi SE 20.7 mph 26.5 mph 0.00 in Rain Light Rain
10:18 PM 53.1 °F - 52.0 °F 96% 29.77 in 3.0 mi SE 18.4 mph 28.8 mph 0.02 in Rain Light Rain
10:53 PM 52.0 °F - 52.0 °F 100% 29.75 in 3.0 mi SE 21.9 mph - 0.03 in Rain Light Rain
11:20 PM 52.0 °F - 51.1 °F 97% 29.73 in 3.0 mi SE 20.7 mph - 0.03 in Rain Rain
11:50 PM 53.6 °F - 51.8 °F 94% 29.72 in 4.0 mi SE 17.3 mph 25.3 mph 0.08 in Rain Rain
11:53 PM 53.1 °F - 52.0 °F 96% 29.72 in 4.0 mi SE 21.9 mph - 0.09 in Rain Rain